GFSNE_con_lsi_075.txt.gz
Lid_Strength_Index
9 9 9 8 9 8 9 9 9 11 11 10 11 8 8 7 6 6 7 4 3 2 1 1 2 1 1 1 0 0 -0 -1 -2 -1 -1 -1 -1 -1
8 9 9 8 8 7 6 6 7 8 11 8 10 9 8 6 6 6 6 4 3 3 2 1 1 2 2 1 0 -0 -1 -0 -1 -2 -1 -1 -1 -1
8 8 8 7 6 6 6 6 6 7 9 8 9 8 9 8 6 6 5 7 6 3 2 2 0 1 1 1 -0 -0 -0 -0 -0 -1 -1 -1 -1 -1
8 6 6 5 6 5 5 5 5 5 6 8 7 6 7 6 5 6 5 4 5 3 2 1 1 -0 0 0 -0 -0 -0 0 1 0 -1 -1 -1 -1
5 5 5 5 5 4 4 5 5 4 5 6 6 6 6 6 6 6 6 6 5 3 2 1 1 0 -0 0 0 -0 0 0 1 1 0 -1 -0 -1
4 4 4 4 4 5 5 5 5 5 5 5 6 6 6 6 6 7 7 7 7 5 3 3 2 1 1 -0 -1 -0 0 0 1 1 1 -0 -0 -0
4 4 3 3 1 1 2 3 4 5 6 6 7 6 6 7 7 6 7 7 7 6 6 6 6 5 4 2 0 -1 -0 -0 0 1 0 -0 -0 1
4 3 3 3 3 1 1 1 2 4 5 6 6 7 7 6 6 7 7 8 9 7 7 7 6 6 5 5 1 -1 -1 -1 0 1 1 -0 -0 1
4 5 4 4 3 4 3 2 2 2 2 4 5 6 6 6 6 6 7 7 8 8 8 8 6 7 4 3 0 -0 -1 -1 -0 0 1 0 -0 -0
5 5 5 5 5 5 5 5 5 5 4 4 4 4 4 5 5 5 6 6 6 7 7 9 8 7 6 5 2 0 -0 -1 -1 -1 -0 -0 -0 -0
5 5 5 6 4 3 5 5 6 5 3 2 1 1 1 1 3 5 6 6 7 7 7 7 8 8 7 7 5 2 1 0 -1 -1 -1 -1 -0 0
6 6 5 5 4 4 6 6 6 5 5 4 3 2 2 1 0 3 4 6 6 7 5 7 7 7 8 6 5 4 4 1 0 -0 -0 -0 0 -0
7 7 7 5 4 4 4 6 5 4 3 4 4 4 3 4 3 2 3 4 5 6 3 4 6 6 7 7 5 5 5 2 1 0 -0 0 1 0
8 8 7 5 5 4 4 2 1 2 4 5 6 6 6 6 5 5 3 3 2 3 2 3 4 4 5 6 6 5 5 3 2 1 1 -0 1 0
7 6 5 5 5 5 2 2 2 5 6 6 5 5 5 5 5 4 3 2 2 2 2 3 4 4 4 4 5 5 5 4 3 2 1 1 1 0
6 6 7 6 6 5 4 4 3 3 4 4 4 5 4 2 3 4 4 4 4 4 3 2 3 3 4 4 4 5 5 6 2 1 1 1 1 0
6 8 10 8 8 7 7 5 4 3 4 3 4 3 3 2 4 3 3 3 5 5 5 4 2 3 2 4 6 6 6 5 2 2 1 2 1 0
8 10 10 9 9 8 8 7 6 5 5 4 3 3 3 3 3 3 3 3 4 4 4 4 3 3 4 4 3 5 5 4 2 1 1 2 2 1
10 10 10 9 9 8 7 7 6 6 5 4 4 3 2 3 4 4 4 4 4 5 5 4 4 4 6 7 4 3 5 3 2 2 2 2 3 2
10 10 10 9 8 8 7 7 7 6 6 5 5 3 3 3 4 6 6 5 5 4 4 3 4 5 5 6 6 4 4 4 2 3 2 1 1 2
10 10 10 9 8 7 7 7 7 7 6 5 4 3 3 3 4 4 4 5 5 5 5 4 2 1 2 3 4 3 3 4 2 2 2 3 3 3
10 10 9 9 8 7 7 7 7 7 7 6 5 4 3 4 4 4 4 4 5 5 5 4 3 2 3 4 4 4 4 3 3 3 3 2 3 5
10 10 10 8 8 7 7 7 7 8 7 6 5 5 4 5 4 4 4 4 3 4 3 3 3 2 3 3 4 5 4 3 2 3 3 4 4 4

GFSNE_con_lsi_078.txt.gz
Lid_Strength_Index
10 10 10 9 9 9 9 9 10 11 11 10 10 9 8 8 7 6 7 5 3 3 3 2 1 1 1 1 1 1 0 -0 -0 -1 -1 -0 -1 -1
9 9 9 8 8 8 8 8 7 8 10 9 9 9 8 6 6 6 7 4 4 3 3 3 2 1 1 1 1 1 1 0 0 -1 -1 0 -1 -1
9 9 8 8 7 7 6 5 6 6 8 8 7 8 9 8 7 7 7 8 7 4 3 3 3 2 1 1 1 1 1 1 0 0 -0 -0 -0 -1
8 7 7 5 5 6 5 5 5 5 6 8 7 8 9 8 7 7 7 6 6 4 3 3 3 2 2 2 1 1 0 -0 -0 0 -0 -1 -1 -1
6 6 6 5 5 5 5 5 5 5 5 6 7 6 6 6 6 6 6 6 5 3 2 2 2 2 2 2 1 1 1 0 -0 0 0 1 1 -1
5 4 4 4 4 5 5 5 5 5 5 6 6 6 5 5 5 6 6 6 6 4 3 2 2 2 1 1 0 1 1 0 -0 0 1 1 1 1
4 4 3 3 1 1 3 4 4 5 5 5 6 6 6 5 6 5 6 6 7 7 7 6 6 5 5 2 1 0 1 -0 -0 -0 0 1 1 0
4 4 3 3 3 2 1 1 2 4 5 5 6 7 6 5 5 5 6 7 8 6 7 7 6 6 5 5 2 1 0 -0 -1 0 0 1 1 1
5 5 5 4 4 5 3 2 2 2 2 4 5 5 5 5 5 5 6 6 7 7 7 8 7 7 5 4 1 1 -0 -1 -1 -0 1 1 1 1
5 5 5 5 5 5 5 6 5 5 4 4 5 5 5 4 4 4 5 5 5 5 5 8 7 7 6 5 2 1 -0 -0 -1 -1 -0 1 1 2
6 6 6 6 4 3 6 6 6 5 3 2 2 2 2 1 2 4 5 6 7 7 5 7 7 8 7 7 6 2 1 1 0 -1 -1 0 1 1
6 6 5 5 4 4 6 7 8 7 6 5 5 4 2 3 2 4 4 6 7 7 6 8 8 9 9 7 6 5 5 2 1 0 -0 -1 0 2
6 7 7 5 4 4 4 6 7 6 5 4 4 4 4 3 3 3 3 4 6 6 5 6 7 7 9 9 8 6 6 6 5 3 1 -0 -0 1
7 7 7 5 4 5 5 4 3 2 3 4 5 6 6 5 5 4 2 2 2 3 4 4 5 7 8 9 9 8 6 6 5 4 3 -0 -0 -0
6 5 4 4 5 6 5 3 3 4 5 7 7 7 6 6 6 6 4 3 3 3 3 4 4 4 5 8 8 8 7 6 5 4 3 1 1 0
5 6 5 6 6 6 6 6 5 4 4 6 5 3 3 5 5 5 6 4 5 4 3 3 4 5 7 6 6 7 6 7 5 4 3 3 2 0
7 9 10 10 9 8 7 7 6 6 6 6 4 3 3 3 3 2 3 3 4 5 4 3 3 4 4 5 6 6 7 6 6 5 3 4 2 0
9 11 11 11 9 9 9 8 7 6 6 6 5 4 4 3 3 3 3 4 4 5 5 4 4 4 4 3 2 5 5 5 5 4 4 3 3 1
10 10 11 10 9 8 8 8 8 6 6 5 5 5 4 3 3 4 4 3 4 4 4 4 4 5 7 7 4 1 4 4 3 4 3 3 3 2
10 10 10 10 10 8 8 8 8 7 7 6 6 5 4 4 4 6 6 5 4 4 4 4 4 5 6 6 5 3 3 3 4 4 4 2 1 1
10 10 10 9 9 8 8 8 8 8 7 7 7 6 4 4 4 5 5 6 5 4 5 5 4 2 3 3 5 4 3 5 3 3 2 3 3 3
10 10 10 9 8 8 7 7 8 8 8 8 7 6 5 4 4 5 4 5 5 4 4 4 3 3 4 5 6 4 4 3 4 4 2 2 3 4
10 10 10 9 8 7 7 7 8 8 8 7 7 6 6 5 5 4 4 3 5 5 4 4 3 3 4 4 5 5 4 3 2 2 3 3 4 4

GFSNE_con_lsi_081.txt.gz
Lid_Strength_Index
10 10 10 10 9 9 9 9 10 11 11 9 10 9 9 8 6 6 7 4 3 3 3 2 2 2 1 0 1 1 1 0 0 0 -0 -1 0 -0
9 10 10 10 9 8 8 8 8 9 10 8 9 9 8 6 6 5 6 4 3 3 3 3 2 2 1 1 0 1 1 1 1 0 -0 -0 -1 0
10 9 9 8 8 7 7 7 7 7 8 7 8 8 9 8 7 7 7 7 7 3 3 3 3 2 2 1 1 0 0 1 1 1 0 -0 -0 -1
8 8 7 5 6 6 6 6 6 5 6 8 7 7 9 8 7 7 6 6 6 4 3 3 3 3 3 2 1 1 0 1 1 2 1 -0 -0 -1
6 6 6 6 6 6 6 6 5 5 5 6 6 5 6 7 7 7 7 7 6 4 2 2 2 2 2 2 2 1 1 1 0 0 0 0 -0 -0
6 6 6 6 6 6 5 5 5 5 5 6 5 6 5 5 6 6 6 6 6 5 3 3 3 3 2 2 2 2 2 1 1 1 0 -0 -0 0
4 5 5 3 1 2 3 4 4 5 6 6 6 6 6 5 5 4 5 5 5 6 5 5 5 5 5 3 2 2 2 1 1 1 0 0 0 0
5 4 4 3 3 2 2 1 2 4 5 5 6 7 6 5 5 5 5 5 6 4 7 6 5 6 5 5 3 2 2 1 1 1 0 0 0 0
5 6 6 5 4 5 3 3 3 2 2 4 6 5 6 5 5 5 5 5 6 4 6 8 7 7 6 5 2 2 2 1 1 1 1 1 1 0
6 5 6 6 6 5 6 6 6 5 5 4 5 5 5 5 5 5 5 5 4 4 4 7 7 8 6 6 3 2 1 1 0 -0 0 1 1 1
5 6 6 7 4 3 6 6 7 6 4 3 3 2 2 1 2 3 5 5 6 6 4 6 5 6 7 7 5 2 1 -0 -0 -1 -1 0 1 1
6 6 4 5 3 3 6 6 7 7 6 6 6 5 3 3 2 3 5 6 6 7 4 6 6 7 7 7 6 5 4 1 0 0 -0 -1 -0 2
6 6 6 4 3 3 3 5 6 5 5 5 5 5 5 3 3 3 4 5 7 6 4 5 6 8 8 9 7 7 6 6 5 3 0 0 0 0
7 6 6 4 3 3 4 4 4 3 5 4 4 5 4 5 5 4 3 3 2 4 4 4 6 7 8 10 9 8 7 6 6 5 5 2 0 0
6 6 5 4 5 6 6 5 4 6 5 6 7 7 6 6 6 5 4 2 2 2 3 3 4 5 6 7 9 9 8 7 6 5 5 4 3 1
6 8 6 6 6 6 7 7 7 6 6 6 7 5 4 4 5 6 6 4 4 4 2 3 3 4 6 5 6 8 8 8 6 6 5 4 2 0
7 8 11 11 11 9 8 8 7 7 7 6 6 6 5 3 3 3 4 4 5 5 5 4 3 4 4 5 7 8 9 8 7 7 4 5 3 1
9 11 11 11 11 10 9 8 8 7 6 6 6 6 5 4 4 3 3 4 4 4 5 5 4 5 5 5 4 7 8 8 7 7 6 5 5 3
10 11 11 10 10 10 9 8 8 7 7 7 7 6 5 5 4 4 4 4 4 4 4 4 4 5 7 8 5 3 6 7 6 7 6 4 5 4
10 10 10 10 9 9 9 8 8 8 8 8 7 6 7 6 5 5 5 5 5 4 4 4 5 5 6 6 6 4 3 5 6 6 6 5 4 2
10 10 10 9 8 8 8 7 7 8 8 7 7 8 7 6 5 5 5 5 6 5 5 5 4 2 3 4 6 4 4 3 4 5 5 4 5 4
10 10 10 9 8 8 7 8 8 8 8 8 8 7 7 6 5 5 5 4 6 5 4 4 3 3 4 5 6 5 5 2 3 3 4 4 4 5
10 10 9 9 8 8 7 8 8 8 9 8 8 7 7 7 5 4 4 4 5 5 4 5 4 4 5 5 4 4 3 3 2 3 4 3 3 3

GFSNE_con_lsi_084.txt.gz
Lid_Strength_Index
11 11 11 10 10 10 9 10 11 12 11 10 10 8 8 7 5 5 6 3 3 3 2 2 2 2 2 1 1 1 1 1 1 0 0 -0 -1 0
10 11 11 10 10 9 9 9 9 9 10 7 8 8 7 6 5 4 5 3 2 2 2 2 2 2 2 1 1 1 -0 0 1 0 0 0 -0 -0
10 10 10 9 9 9 8 7 7 7 8 7 6 7 7 7 6 5 5 6 6 3 2 2 2 2 2 2 1 1 0 0 1 0 1 1 0 -0
9 9 8 6 7 7 7 7 6 6 7 8 6 6 8 7 6 7 6 5 6 4 2 2 2 2 2 2 2 1 0 0 0 1 1 1 1 0
7 7 7 6 7 7 7 7 6 6 6 7 7 5 5 6 6 6 6 7 5 3 2 2 2 2 2 2 2 2 1 0 1 0 1 2 2 1
6 6 6 6 7 7 7 7 6 6 6 6 6 6 5 5 5 6 6 6 6 5 4 3 2 2 1 1 2 1 1 1 1 0 0 1 1 1
5 5 6 4 2 3 4 4 5 6 6 7 7 6 6 5 5 4 5 5 5 5 5 5 5 5 4 2 2 1 1 1 1 1 0 1 1 1
5 6 5 3 4 3 2 2 2 5 5 6 7 8 7 6 5 5 5 6 7 5 6 6 5 6 5 5 3 2 2 1 1 2 1 1 1 0
5 5 6 5 4 6 4 3 3 2 3 5 6 6 6 5 5 5 5 6 6 4 6 7 6 6 4 4 2 2 2 2 2 2 1 1 1 0
6 6 6 6 6 6 6 6 6 6 5 5 6 6 6 5 5 5 5 5 5 4 4 6 5 6 5 4 2 1 1 2 2 2 1 1 2 1
6 5 6 6 4 3 5 6 6 6 4 3 3 2 2 2 3 5 6 6 7 5 4 5 5 5 6 6 5 2 1 1 1 2 2 1 2 1
6 6 5 5 3 3 4 5 6 6 6 6 6 5 4 5 3 4 5 6 6 8 4 5 5 5 7 5 5 5 4 2 0 -0 0 1 1 2
6 7 6 5 4 4 3 5 6 5 5 6 6 6 5 5 5 4 4 4 5 6 4 4 5 5 6 7 7 6 5 5 3 2 0 0 0 2
7 7 7 5 4 4 5 4 4 5 6 7 6 5 5 4 4 3 2 3 3 3 3 4 5 5 6 7 7 6 6 6 5 5 4 2 0 0
7 6 5 5 5 7 6 5 5 7 7 7 7 7 6 6 6 5 5 4 4 2 2 2 4 5 5 7 7 7 6 5 5 5 5 4 4 2
6 7 6 7 7 8 8 8 8 8 7 7 7 6 5 5 4 4 6 5 4 3 2 2 3 4 6 6 6 7 7 6 5 5 4 4 3 3
7 8 10 10 11 10 10 9 7 7 7 7 7 7 6 5 5 3 3 5 5 5 4 3 2 3 4 5 6 6 7 7 6 5 4 4 3 2
9 11 11 11 11 10 10 9 7 7 7 7 7 7 7 6 5 4 3 3 4 5 5 4 4 4 5 5 4 7 7 7 7 6 5 5 4 2
10 11 11 10 10 9 9 9 9 8 7 8 8 8 7 6 6 6 5 4 4 4 4 4 5 5 7 8 5 4 6 6 7 6 5 4 4 3
10 11 10 10 9 9 8 8 8 8 8 8 8 7 7 7 7 7 6 6 5 4 5 4 4 5 6 7 6 5 4 6 6 6 7 5 4 2
10 10 10 9 9 8 7 7 8 8 8 8 8 8 8 8 8 7 7 5 5 5 6 5 4 2 3 4 6 6 6 5 5 6 6 6 5 4
10 11 10 9 9 8 8 8 8 8 9 9 8 8 8 7 8 7 6 5 5 6 6 4 3 3 4 5 6 7 6 5 4 4 4 4 4 5
11 11 10 9 8 8 8 8 8 8 9 9 9 8 7 8 7 6 5 4 5 6 5 4 4 4 5 5 5 5 6 5 5 6 5 4 4 4

GFSNE_con_lsi_087.txt.gz
Lid_Strength_Index
7 7 7 7 6 6 6 6 7 9 8 6 6 4 4 3 3 3 3 2 2 3 3 3 2 2 1 1 1 1 0 0 0 0 -0 -0 -1 -1
7 7 6 6 5 5 5 5 5 6 7 5 4 3 3 3 2 2 2 2 1 1 2 2 2 2 2 1 1 1 1 0 -0 0 0 -0 -0 -1
6 5 5 4 4 4 4 4 4 4 6 4 3 3 3 2 2 2 2 2 2 1 1 1 2 2 2 1 1 1 1 1 0 -1 -0 0 0 -0
5 5 4 4 4 3 3 4 4 3 4 6 4 4 3 2 2 2 2 2 2 1 1 1 1 1 1 1 1 1 1 1 1 -0 -1 -0 0 0
4 4 4 4 4 4 4 4 4 4 4 5 5 4 3 3 3 2 2 2 2 1 1 1 1 1 1 1 1 1 1 1 1 1 0 -1 0 1
3 3 3 4 4 4 4 4 5 6 6 6 6 5 4 3 4 4 4 3 2 2 1 1 1 1 1 1 1 1 1 1 1 1 1 0 0 1
3 3 3 3 2 2 4 5 6 6 7 7 7 7 6 6 6 4 4 4 3 2 2 2 1 1 1 0 1 1 1 0 1 1 0 0 0 0
4 3 3 3 3 3 2 2 3 4 5 6 7 7 7 6 5 5 5 6 6 2 2 2 1 2 2 2 1 1 1 1 0 0 1 1 0 0
5 5 5 5 4 4 3 3 3 3 3 4 5 5 6 5 4 5 5 4 5 3 3 4 2 2 1 2 2 2 1 1 1 1 1 1 1 0
6 5 5 5 4 5 5 6 5 4 4 4 4 4 4 3 4 4 4 4 3 3 3 6 3 3 2 1 1 2 2 2 1 1 1 1 1 1
5 5 5 5 4 3 5 5 5 4 3 1 2 2 2 2 3 4 5 6 6 5 3 4 3 3 3 2 1 1 1 2 1 1 2 1 2 1
6 6 4 4 3 3 5 5 5 5 5 4 4 4 3 3 2 3 4 7 7 7 4 5 5 4 6 3 2 1 1 1 1 1 1 1 2 2
7 6 6 5 4 4 4 5 6 5 4 5 5 5 5 4 4 3 3 4 5 5 3 4 4 4 4 5 3 2 2 1 1 0 1 1 1 2
6 6 6 5 4 4 5 5 5 5 6 7 7 7 6 4 4 3 3 2 2 3 2 2 4 4 4 5 6 3 2 2 2 2 1 0 1 1
6 5 5 5 5 6 6 6 6 7 8 8 8 7 6 5 4 3 2 2 2 2 1 2 3 4 5 5 5 5 4 2 2 2 2 1 1 2
6 6 6 6 7 7 7 8 8 7 8 8 7 6 5 5 5 4 4 4 4 3 1 1 2 3 5 5 5 5 3 5 2 2 2 2 2 1
6 7 9 9 9 9 8 8 8 7 7 7 7 7 6 6 6 5 3 4 4 4 3 2 2 2 3 4 5 5 4 4 2 2 2 3 2 1
8 10 10 10 10 9 8 8 7 7 7 7 7 7 7 7 6 5 4 4 4 4 4 3 3 4 4 4 3 5 4 4 3 3 3 2 3 1
10 10 10 10 9 9 9 7 7 7 7 8 8 7 7 7 7 7 6 6 6 4 3 3 3 4 7 8 5 3 4 4 4 4 4 3 3 1
10 10 10 10 9 9 8 8 7 7 7 8 8 8 7 7 8 8 7 8 7 6 5 4 4 4 5 6 5 4 4 4 4 4 4 2 1 2
10 10 10 10 10 8 7 7 7 8 8 8 8 8 7 7 8 8 8 7 7 7 7 5 4 2 2 3 5 5 4 5 4 4 4 4 4 3
10 10 10 10 9 8 7 7 8 8 8 8 8 8 8 7 8 8 8 8 7 7 6 5 3 3 4 5 6 6 5 3 4 4 4 4 4 5
10 10 10 10 9 8 7 8 8 8 8 8 8 8 8 8 7 7 7 6 5 4 6 5 4 4 4 4 5 5 4 4 4 5 4 4 4 4

GFSNE_con_lsi_093.txt.gz
Lid_Strength_Index
5 5 5 5 4 4 4 4 6 8 7 5 5 3 3 3 2 3 3 2 2 2 3 2 2 1 2 1 1 1 0 0 -1 -2 -2 -1 -1 -2
5 5 4 4 3 3 3 3 3 5 7 4 3 3 2 2 1 1 2 -0 1 1 1 2 2 2 2 2 1 1 1 1 0 -0 -1 -2 -1 -1
4 4 4 3 3 3 2 2 3 3 5 4 2 2 2 2 1 1 1 1 1 -0 -0 0 0 0 1 2 1 1 1 1 0 0 -0 -0 -1 -1
4 3 3 3 2 2 2 2 2 2 3 4 2 2 2 2 2 2 2 1 1 -0 -1 -1 -1 -0 -0 0 1 1 1 1 1 0 -0 -0 -0 -1
3 3 3 2 3 3 3 3 3 3 2 4 4 3 3 2 3 3 3 3 2 1 -0 -1 -1 -1 -1 -0 -1 -0 0 0 1 1 0 0 -0 -0
2 2 2 3 3 4 4 4 4 4 4 4 5 5 4 4 4 4 5 3 4 3 1 1 -0 -1 -1 -1 -1 -1 -1 -1 0 0 0 1 1 0
3 3 3 3 2 2 4 4 4 5 6 6 7 6 6 6 6 5 5 4 4 3 3 3 2 1 0 -1 -1 -1 -1 -1 0 1 0 1 1 1
5 4 4 3 3 2 2 2 3 5 5 6 7 7 7 6 5 6 5 6 7 3 4 4 3 3 2 1 -1 -2 -2 -2 -1 -0 -0 0 1 0
5 5 6 5 4 5 4 3 3 2 2 4 5 5 5 5 4 4 5 5 5 4 4 5 3 3 2 1 -1 -2 -2 -2 -1 -1 -0 -0 0 1
6 6 6 5 5 5 5 5 5 4 4 4 4 4 3 3 3 3 4 4 3 3 3 6 3 4 2 2 -1 -2 -2 -1 -1 -1 -1 -0 -0 0
6 5 5 5 4 3 5 5 5 5 3 2 2 2 1 2 2 3 5 6 6 5 3 4 4 4 3 3 2 -1 -1 -1 -1 -0 -0 -0 -0 -0
6 6 4 5 3 3 5 5 6 5 4 4 4 4 3 3 2 4 4 6 6 6 3 5 5 5 6 4 3 2 1 -1 -1 -1 -0 -0 -0 1
7 6 5 4 4 4 4 5 6 5 4 5 5 5 5 4 4 4 4 5 6 6 3 4 4 5 5 5 3 2 2 1 1 0 -0 -0 0 1
6 5 5 4 4 4 4 4 4 4 6 6 7 6 5 5 5 4 4 3 3 3 2 2 4 4 5 6 6 3 2 2 1 1 1 0 -0 0
5 5 4 4 4 5 5 5 5 6 7 7 7 6 6 6 5 5 5 4 3 2 1 2 3 3 4 5 5 5 4 3 2 2 2 1 2 2
5 6 6 6 5 6 7 7 7 7 7 7 7 6 5 6 6 5 6 5 5 4 2 2 1 2 4 4 5 5 4 5 3 2 2 2 1 1
7 7 8 8 9 8 8 8 7 6 6 6 6 7 6 7 7 6 6 6 6 6 5 3 2 1 2 3 4 4 4 4 3 3 3 3 2 1
8 9 10 9 9 9 8 9 7 6 6 6 6 7 8 8 8 7 6 7 7 6 6 5 4 3 3 3 2 4 4 4 4 3 3 3 3 1
10 10 10 9 9 9 9 8 8 7 6 7 7 7 7 8 8 8 7 7 7 6 6 5 6 5 6 6 3 2 4 4 4 4 3 3 4 3
11 11 10 10 9 9 9 8 7 7 7 7 7 7 8 8 8 8 7 8 8 8 8 7 6 6 6 5 5 3 3 3 4 4 4 3 2 1
11 10 10 10 9 9 9 8 8 8 8 7 7 8 7 8 8 8 7 6 7 8 9 8 7 4 4 3 5 4 3 4 3 4 3 4 4 4
11 10 10 9 9 9 9 8 8 8 8 8 8 8 8 8 8 7 7 7 8 8 8 7 6 6 6 5 5 5 4 3 4 3 4 3 4 6
11 11 10 10 9 9 9 9 8 8 8 8 8 8 8 8 7 6 7 7 8 8 7 6 6 6 6 5 4 4 4 4 4 5 4 3 3 3

GFSNE_con_lsi_096.txt.gz
Lid_Strength_Index
9 9 9 9 8 8 8 8 9 10 10 8 8 6 6 6 4 4 5 2 1 1 2 2 2 2 2 2 2 1 1 0 0 -0 -1 -2 -2 -2
8 9 9 8 8 7 7 7 7 8 9 7 7 6 4 3 2 2 4 -0 0 0 0 -0 1 1 1 1 2 2 2 1 1 0 0 -1 -1 -2
9 8 8 7 7 7 6 6 6 6 7 6 5 5 5 5 4 3 2 3 3 -1 -1 -1 -1 0 0 1 1 1 2 1 1 1 0 0 -0 -1
8 7 7 5 7 6 7 7 7 7 7 8 6 6 6 5 4 4 2 1 3 -0 -1 -1 -1 -1 -1 -0 -0 0 1 1 1 1 0 0 0 -0
7 7 7 7 8 7 7 8 8 6 8 8 8 7 7 6 5 5 4 3 2 1 0 0 -0 -1 -1 -2 -1 -1 -1 0 1 1 1 1 0 0
6 6 6 7 8 8 8 8 7 8 8 7 8 7 7 6 7 6 6 6 5 3 2 1 1 1 -0 -0 -1 -1 -1 -1 -0 0 0 1 1 0
6 6 6 6 3 3 5 6 7 6 6 6 7 7 7 7 7 6 6 5 5 4 5 5 5 4 4 1 1 -1 -1 -1 -1 -1 -0 0 1 1
8 8 7 5 6 4 3 3 4 6 6 6 6 7 6 6 5 6 6 7 8 5 7 6 5 5 4 4 1 -1 -1 -2 -2 -1 -1 -1 -0 0
8 8 8 7 6 7 5 3 3 3 3 5 6 6 6 6 6 7 6 6 6 5 6 7 6 5 4 3 1 -0 -1 -1 -1 -2 -2 -1 -1 -0
7 8 8 8 7 6 6 6 6 6 5 5 5 6 6 5 5 5 5 5 4 3 3 6 6 6 5 4 1 0 -0 -1 -1 -2 -2 -2 -1 -1
7 8 8 7 5 3 5 6 7 6 3 2 2 2 1 1 2 3 5 6 7 6 5 5 5 6 6 5 4 1 0 -0 -1 -2 -1 -1 -1 -1
8 7 5 6 4 3 5 6 7 7 5 6 5 4 3 4 2 4 5 7 7 7 6 6 6 7 8 5 5 4 4 1 -1 -1 -1 -2 -1 1
8 8 7 4 4 3 3 5 5 5 5 5 5 5 5 5 5 4 4 5 6 8 6 5 5 6 6 6 6 5 5 4 2 0 -1 -1 -1 -0
7 7 7 4 4 4 4 4 3 4 6 6 7 7 7 6 5 4 4 5 5 5 4 3 4 5 6 6 6 6 6 3 4 4 2 -0 -1 -1
7 6 5 5 5 6 5 5 5 7 8 9 8 8 6 5 6 6 5 4 5 4 3 3 3 3 4 5 5 5 5 5 4 3 2 1 2 1
7 7 7 6 6 7 7 7 8 8 8 7 7 7 7 7 6 5 6 6 6 5 4 3 3 2 4 4 4 5 5 6 4 4 4 2 1 1
7 9 10 9 10 10 9 9 8 8 7 7 7 7 7 7 7 6 6 6 7 7 6 5 4 3 3 4 4 4 5 5 4 4 3 5 3 1
9 11 11 11 11 10 10 10 9 8 7 8 7 7 7 8 8 8 8 8 8 7 7 6 5 5 5 4 2 4 4 4 4 5 5 5 5 3
12 12 12 11 11 10 10 10 10 8 8 8 8 8 7 7 8 8 8 8 8 7 6 6 6 7 8 8 5 2 4 4 4 4 4 4 5 3
12 12 11 11 10 10 10 10 10 9 8 8 8 8 8 8 8 8 8 8 8 7 7 7 7 7 8 8 7 3 3 4 4 4 4 4 3 1
12 11 11 11 10 10 10 9 10 9 8 8 8 8 8 8 8 8 8 7 7 8 9 8 7 4 5 5 6 5 3 3 3 4 4 5 4 4
11 11 11 10 10 10 10 9 10 9 8 8 8 8 8 8 9 8 8 8 7 7 8 7 6 6 6 7 8 5 5 3 3 3 3 3 4 6
11 10 10 10 10 10 10 10 10 9 8 8 8 8 8 9 8 7 7 7 6 7 7 7 6 6 7 7 7 6 4 4 4 5 4 3 3 3